Regional Weather Roundup
Issued by NWS

Home | Current Version | Previous Version | Graphics & Text | Print | Product List | Glossary Off
Versions: 1 2 3 4 5 6 7 8 9 10 11 12 13 14 15 16 17 18 19 20 21 22 23 24 25 26 27 28 29 30 31 32 33 34 35 36 37 38 39 40 41 42 43 44 45 46 47 48 49 50

000
ASUS43 KDMX 250201
RWRIA

WEATHER ROUNDUP FOR IOWA
NATIONAL WEATHER SERVICE DES MOINES IA
900 PM CDT WED MAY 24 2017

NOTE: "FAIR" INDICATES FEW OR NO CLOUDS BELOW 12,000 FEET WITH NO
SIGNIFICANT WEATHER AND/OR OBSTRUCTIONS TO VISIBILITY.

* - THESE STATIONS ARE NOT NWS STATIONS...THUS NOT UNDER NWS
QUALITY CONTROL.  THEY ALSO DO NOT REPORT WEATHER SUCH
AS PRECIPITATION OR FOG.

IAZ001>003-012>014-020>022-031>034-043>046-250300-
   NORTHWEST IOWA

CITY           SKY/WX    TMP DP  RH WIND       PRES   REMARKS
CARROLL *      CLEAR     59  48  67 NE5       29.68R
CHEROKEE *     CLEAR     55  46  72 E5        29.67S
DENISON *      CLEAR     55  46  71 E3        29.68S
LE MARS *      CLEAR     61  45  55 SE3       29.67R
ORANGE CITY *  CLEAR     57  48  72 E5        29.67S
SHELDON *      PTCLDY    57  45  62 E8        29.66S
SIOUX CITY     CLEAR     59  45  59 SE6       29.66S
SPENCER        CLEAR     54  46  74 E7        29.68F
STORM LAKE *   CLOUDY    59  45  58 E5        29.68S
$$

IAZ055>058-069>071-079>083-090>094-250300-
   SOUTHWEST IOWA

CITY           SKY/WX    TMP DP  RH WIND       PRES   REMARKS
ATLANTIC *     CLEAR     59  48  67 CALM      29.67S
AUDUBON *      CLEAR     54  48  82 CALM      29.69S
CLARINDA *     MOCLDY    59  50  72 CALM      29.70R
COUNCIL BLFS * CLEAR     61  45  55 CALM      29.67S
CRESTON *      CLEAR     55  48  76 NE6       29.69S
HARLAN  *      PTCLDY    59  48  67 CALM      29.70S
LAMONI         PTCLDY    56  49  77 N5        29.68R
RED OAK *      PTCLDY    61  46  59 MISG      29.67S
SHENANDOAH *   CLEAR     61  48  63 CALM      29.67S
$$

IAZ047>049-059>061-072>074-084-250300-
   CENTRAL IOWA

CITY           SKY/WX    TMP DP  RH WIND       PRES   REMARKS
AMES           CLOUDY    57  50  77 CALM      29.68R
ANKENY *       PTCLDY    54  52  94 CALM      29.68S
BOONE *        PTCLDY    55  50  82 NE5       29.68R
CHARITON *     CLEAR     55  48  76 N6        29.67S
DES MOINES     PTCLDY    60  48  64 N3        29.67S
GRINNELL*      CLEAR     55  48  77 N5        29.68S
KNOXVILLE *    CLEAR     55  48  76 N5        29.66R
MARSHALLTOWN   CLEAR     54  50  86 NE6       29.67R
NEWTON *       PTCLDY    55  48  76 N5        29.67R
PELLA *        CLEAR     54  48  80 CALM      29.68R
PERRY *        CLOUDY    60  50  70 E3        29.68R
$$

IAZ004>006-015-016-023>025-035-036-250300-
   NORTH CENTRAL IOWA

CITY           SKY/WX    TMP DP  RH WIND       PRES   REMARKS
ALGONA *       PTCLDY    57  50  77 NE3       29.69S
CLARION *      CLOUDY    57  52  82 NE5       29.68S
ESTHERVILLE    CLEAR     54  48  80 N3        29.68S
FORT DODGE *   CLEAR     55  46  71 NE3       29.69R
MASON CITY     PTCLDY    54  48  80 NE7       29.70S
FOREST CITY *  CLOUDY    59  41  51 CALM      29.69S
WEBSTER CITY * CLOUDY    57  50  77 E5        29.66S
IOWA FALLS *   CLOUDY    57  49  74 N3        29.69S
$$

IAZ007>011-017>019-026>030-037>042-050>054-066-250300-
   NORTHEAST IOWA

CITY           SKY/WX    TMP DP  RH WIND       PRES   REMARKS
CEDAR RAPIDS   CLOUDY    56  51  84 N10       29.66R
CHARLES CITY * CLOUDY    57  52  82 NE5       29.69R
CLINTON *      CLOUDY    57  52  83 N12       29.64R
DECORAH *      PTCLDY    54  48  82 CALM      29.68S
DUBUQUE        CLOUDY    55  50  83 N6        29.66R
MONTICELLO *   CLOUDY    57  52  82 VRB5      29.66S
OELWEIN *      MOCLDY    55  50  82 NE7       29.69R
WATERLOO       PTCLDY    52  47  83 E5        29.68R
$$

IAZ064-065-067-068-078-250300-
   EAST CENTRAL IOWA

CITY           SKY/WX    TMP DP  RH WIND       PRES   REMARKS
DAVENPORT      CLOUDY    58  51  78 N9        29.64R
IOWA CITY      CLOUDY    60  50  69 N9        29.67R
MT. PLEASANT * MOCLDY    58  49  73 N10       29.64R
MUSCATINE *    CLOUDY    59  50  72 N9        29.64S
QUAD CITIES    MOCLDY    60  50  69 N8        29.62R
$$

IAZ062-063-075>077-085>089-095>099-250300-
   SOUTHEAST IOWA

CITY           SKY/WX    TMP DP  RH WIND       PRES   REMARKS
BURLINGTON     CLEAR     58  52  80 N7        29.62R
FAIRFIELD *    MOCLDY    55  48  76 N9        29.65R
FORT MADISON * CLEAR     57  52  82 N6        29.63S
KEOKUK *       CLEAR     57  52  82 N5        29.62S
OSKALOOSA *      N/A     55  48  77 N6        29.67R
OTTUMWA        CLEAR     56  48  74 N7        29.66R
WASHINGTON *   CLOUDY    59  52  77 N10       29.66R
$$

ABBREVIATIONS USED IN REMARKS
   TC - TEMPERATURES IN CELSIUS
  WCI - WIND CHILL INDEX
   HX - HEAT INDEX
  VSB - VISIBILITY
$$





USA.gov is the U.S. government's official web portal to all federal, state and local government web resources and services.